Home > Weather > Nagoya > Past weeks

Flag for Japan Weather for the Past 2 Weeks in Nagoya, Japan

Now
48 °F

Passing clouds.


Feels Like: 46 °F
Forecast: 25 / 48 °F
Wind: 6 mph from West

Location: Nagoya Airport

Current Time: Feb 8, 2016 at 4:20:15 PM

Latest Report: Feb 8, 2016 at 3:30 PM


Visibility: N/A

Pressure: 29.98 "Hg

Humidity: 34%

Dew point: 21 °F

Location of NagoyaLocation

Historic Weather in Nagoya — Graph

°F

Nagoya Temperature Yesterday

Maximum temperature yesterday: 46 °F (at 10:30 AM)
Minimum temperature yesterday: 37 °F (at 4:00 AM)
Average temperature yesterday: 43 °F

High & Low Weather Summary for the Past Weeks

 TemperatureHumidityPressure
High54 °F (Jan 28, 2:30 PM)94% (Jan 29, 9:00 PM)30.39 "Hg (Jan 29, 9:00 PM)
Low27 °F (Jan 25, 4:00 AM)28% (Jan 24, 3:00 PM)29.83 "Hg (Jan 24, 3:00 PM)
Average44 °F60%30.12 "Hg
* Reported Jan 24 3:00 PM — Feb 8 3:00 PM, Nagoya, Weather by CustomWeather, © 2016

Note: Actual official high and low records may vary slightly from our data, if they occured in-between our weather recording intervals... More about our weather records

Advertising

Nagoya Weather History for the Previous 24 Hours

 ConditionsComfort  
Time TempWeatherWind HumidityBarometerVisibility
3:00 PM
Mon, Feb 8
48 °FPassing clouds.8 mph37%29.98 "HgN/A
2:30 PM48 °FPassing clouds.8 mph32%30.01 "HgN/A
2:00 PM46 °FPassing clouds.9 mph43%30.01 "HgN/A
1:30 PM45 °FPassing clouds.9 mph39%30.01 "HgN/A
1:00 PM45 °FPassing clouds.9 mph39%30.04 "HgN/A
12:30 PM43 °FPassing clouds.8 mph42%30.07 "HgN/A
12:00 PM43 °FPassing clouds.9 mph42%30.07 "HgN/A
11:30 AM43 °FPassing clouds.7 mph39%30.09 "HgN/A
11:00 AM41 °FPassing clouds.8 mph45%30.09 "HgN/A
10:00 AM39 °FPassing clouds.7 mph42%30.12 "HgN/A
9:30 AM39 °FPassing clouds.5 mph45%30.12 "HgN/A
8:30 AM37 °FPassing clouds.8 mph56%30.12 "HgN/A
8:00 AM36 °FPassing clouds.9 mph52%30.12 "HgN/A
7:30 AM34 °FPassing clouds.9 mph60%30.12 "HgN/A
7:00 AM32 °FPassing clouds.9 mph64%30.09 "HgN/A
6:30 AM34 °FPassing clouds.10 mph60%30.09 "HgN/A
6:00 AM34 °FClear.14 mph60%30.09 "Hg10 mi
5:30 AM34 °FClear.12 mph60%30.09 "Hg10 mi
5:00 AM30 °FClear.7 mph64%30.09 "Hg10 mi
4:30 AM34 °FClear.5 mph56%30.09 "Hg10 mi
4:00 AM34 °FClear.9 mph56%30.09 "Hg10 mi
3:30 AM34 °FClear.8 mph60%30.09 "Hg10 mi
3:00 AM34 °FClear.8 mph60%30.09 "Hg10 mi
2:30 AM36 °FClear.12 mph56%30.09 "Hg10 mi
2:00 AM37 °FClear.14 mph56%30.09 "Hg10 mi
1:30 AM39 °FClear.13 mph52%30.09 "Hg10 mi
1:00 AM37 °FClear.9 mph56%30.09 "Hg10 mi
12:30 AM37 °FClear.10 mph56%30.09 "Hg10 mi
12:00 AM36 °FClear.9 mph48%30.09 "Hg10 mi
11:30 PM
Sun, Feb 7
39 °FClear.14 mph48%30.09 "Hg10 mi
11:00 PM39 °FClear.14 mph52%30.09 "Hg10 mi
10:30 PM39 °FClear.9 mph52%30.09 "Hg10 mi
10:00 PM41 °FClear.21 mph49%30.09 "Hg10 mi
9:30 PM39 °FClear.17 mph56%30.09 "Hg10 mi
9:00 PM39 °FClear.20 mph56%30.09 "Hg10 mi
8:30 PM41 °FClear.18 mph53%30.09 "Hg10 mi
8:00 PM41 °FClear.18 mph53%30.09 "Hg10 mi
7:30 PM41 °FClear.20 mph53%30.09 "Hg10 mi
7:00 PM43 °FPassing clouds.21 mph49%30.09 "HgN/A
6:30 PM43 °FPassing clouds.23 mph46%30.07 "HgN/A
6:00 PM43 °FPassing clouds.24 mph46%30.07 "HgN/A
5:30 PM43 °FPassing clouds.24 mph42%30.07 "HgN/A
5:00 PM45 °FPassing clouds.24 mph46%30.04 "HgN/A
4:30 PM45 °FPassing clouds.28 mph42%30.04 "HgN/A
4:00 PM45 °FPassing clouds.25 mph46%30.04 "HgN/A
Weather by CustomWeather, © 2016

See weather overviewHow to use our weather pages